Weather History for Minneapolis Crystal, MN

Change the Weather History Date:

Wednesday, October 23, 2013

  Actual Average Record
Temperature  
Mean Temperature 35 °F -  
Max Temperature 37 °F 52 °F 72 °F (1993)
Min Temperature 33 °F 35 °F 23 °F (2006)
Degree Days  
Heating Degree Days 30    
Moisture  
Dew Point 24 °F    
Average Humidity 65    
Maximum Humidity 85    
Minimum Humidity 50    
Precipitation  
Precipitation 0.00 in - - ()
Sea Level Pressure  
Sea Level Pressure 30.06 in    
Wind  
Wind Speed 7 mph (WNW)    
Max Wind Speed 15 mph    
Max Gust Speed 23 mph    
Visibility 10 miles    
Events      
Averages and records for this station are not official NWS values.
T = Trace of Precipitation, MM = Missing Value Source: NWS Daily Summary

Daily Weather History Graph

Daily Weather History Graph

Search for Another Location

Airport:

Trip Planner

Search our weather history database for the weather conditions in past years. The results will help you decide how hot, cold, wet, or windy it might be!

Date:

Astronomy

Oct. 23, 2013 Rise Set
Actual Time 7:40 AM CDT 6:14 PM CDT
Civil Twilight 7:10 AM CDT 6:44 PM CDT
Nautical Twilight 6:35 AM CDT 7:18 PM CDT
Astronomical Twilight 6:01 AM CDT 7:52 PM CDT
Moon 9:39 PM CDT (10/23) 12:04 PM CDT (10/23)
Length of Visible Light 11h 34m
Length of Day
10h 34m
Waning Gibbous, 79% of the Moon is Illuminated
Oct 23
Waning Gibbous
Oct 26
Last Quarter
Nov 3
New
Nov 9
First Quarter
Nov 17
Full

Hourly Weather History & Observations

Time (CDT) Temp. Windchill Dew Point Humidity Pressure Visibility Wind Dir Wind Speed Gust Speed Precip Events Conditions
12:53 AM 35.1 °F 29.3 °F 30.9 °F 85% 30.03 in 10.0 mi NW 6.9 mph - 0.00 in   Overcast
1:53 AM 35.1 °F 32.2 °F 30.0 °F 82% 30.02 in 10.0 mi West 3.5 mph - N/A   Overcast
2:53 AM 33.1 °F 28.7 °F 28.9 °F 85% 30.02 in 10.0 mi West 4.6 mph - N/A   Overcast
3:53 AM 34.0 °F 28.0 °F 28.0 °F 79% 30.02 in 10.0 mi West 6.9 mph - N/A   Overcast
4:53 AM 34.0 °F 28.8 °F 28.0 °F 79% 30.01 in 10.0 mi West 5.8 mph - N/A   Overcast
5:53 AM 34.0 °F 28.0 °F 28.0 °F 79% 30.02 in 10.0 mi West 6.9 mph - N/A   Overcast
6:53 AM 33.1 °F 28.7 °F 28.0 °F 82% 30.02 in 10.0 mi West 4.6 mph - N/A   Overcast
7:53 AM 33.1 °F 28.7 °F 28.0 °F 82% 30.03 in 10.0 mi WNW 4.6 mph - N/A   Overcast
8:53 AM 34.0 °F 28.0 °F 28.0 °F 79% 30.04 in 10.0 mi WNW 6.9 mph - N/A   Overcast
9:53 AM 36.0 °F 28.0 °F 28.0 °F 73% 30.04 in 10.0 mi WNW 11.5 mph - N/A   Overcast
10:53 AM 37.0 °F 28.5 °F 23.0 °F 57% 30.04 in 10.0 mi WNW 13.8 mph - N/A   Overcast
11:53 AM 36.0 °F 29.0 °F 23.0 °F 59% 30.04 in 10.0 mi NW 9.2 mph - N/A   Overcast
12:53 PM 37.9 °F 30.5 °F 21.9 °F 53% 30.04 in 10.0 mi WNW 11.5 mph 18.4 mph N/A   Overcast
1:53 PM 37.0 °F 29.8 °F 21.9 °F 54% 30.04 in 10.0 mi NW 10.4 mph - N/A   Overcast
2:53 PM 37.0 °F 30.4 °F 21.9 °F 54% 30.04 in 10.0 mi WNW 9.2 mph - N/A   Overcast
3:53 PM 36.0 °F 26.7 °F 19.9 °F 52% 30.06 in 10.0 mi NW 15.0 mph - N/A   Overcast
4:53 PM 35.1 °F 26.4 °F 19.0 °F 52% 30.08 in 10.0 mi NW 12.7 mph 23.0 mph N/A   Overcast
5:53 PM 35.1 °F 28.6 °F 19.0 °F 52% 30.09 in 10.0 mi NW 8.1 mph - N/A   Overcast
6:53 PM 35.1 °F 30.1 °F 18.0 °F 50% 30.09 in 10.0 mi NNW 5.8 mph - N/A   Overcast
7:53 PM 34.0 °F 29.8 °F 19.0 °F 54% 30.11 in 10.0 mi NW 4.6 mph - N/A   Overcast
8:53 PM 34.0 °F 28.8 °F 19.9 °F 56% 30.11 in 10.0 mi NW 5.8 mph - N/A   Overcast
9:53 PM 34.0 °F 27.2 °F 18.0 °F 52% 30.12 in 10.0 mi NNW 8.1 mph - N/A   Overcast
10:53 PM 33.1 °F 26.9 °F 19.9 °F 59% 30.12 in 10.0 mi NW 6.9 mph - N/A   Overcast
11:53 PM 33.1 °F 26.1 °F 19.9 °F 59% 30.12 in 10.0 mi NW 8.1 mph - N/A   Overcast